Location: Mexico
(19.4000°N, 99.1500°W)
Time: 08:43:48

ISS - Pass Details

Date: 21 March 2018
Orbit: 403 x 406 km, 51.6° (Epoch: 17 March)

Event Time Altitude Azimuth Distance (km) Brightness Sun altitude
Rises 19:44:55 0° 215° (SW) 2,306 0.4 -14.2°
Reaches altitude 10° 19:46:59 10° 214° (SW) 1,450 -0.7 -14.7°
Maximum altitude 19:50:14 77° 129° (SE) 416 -4.0 -15.5°
Enters shadow 19:51:55 26° 45° (NE) 838 -2.6 -15.9°
